Vinton, IA

9:53 PM CDT on August 29, 2016 (GMT -0500)
Vinton-Veterans Memorial

Weather History for KVTI - August, 2014

Change the Weather History Date:

Friday, August 29, 2014

  Actual Average Record
Temperature  
Mean Temperature 80 °F -  
Max Temperature 90 °F 82 °F 99 °F (1948)
Min Temperature 70 °F 57 °F 41 °F (1986)
Cooling Degree Days 15    
Growing Degree Days 30 (Base 50)    
Moisture  
Dew Point 68 °F    
Average Humidity 81    
Maximum Humidity 93    
Minimum Humidity 52    
Precipitation  
Precipitation 0.30 in - - ()
Sea Level Pressure  
Sea Level Pressure 29.85 in    
Wind  
Wind Speed 8 mph (South)    
Max Wind Speed 21 mph    
Max Gust Speed 31 mph    
Visibility 8 miles    
Events Rain    
Averages and records for this station are not official NWS values.
T = Trace of Precipitation, MM = Missing Value Source: NWS Daily Summary

Daily Weather History Graph

Daily Weather History Graph

Search for Another Location

Airport or City:

Trip Planner

Search our weather history database for the weather conditions in past years. The results will help you decide how hot, cold, wet, or windy it might be!

Date:

Astronomy

Aug. 29, 2014 Rise Set
Actual Time 6:30 AM CDT 7:46 PM CDT
Civil Twilight 6:01 AM CDT 8:15 PM CDT
Nautical Twilight 5:26 AM CDT 8:50 PM CDT
Astronomical Twilight 4:49 AM CDT 9:27 PM CDT
Moon 10:25 AM CDT (8/29) 9:39 PM CDT (8/29)
Length of Visible Light 14h 14m
Length of Day
13h 16m
Waxing Crescent, 15% of the Moon is Illuminated
Aug 29
Waxing Crescent
Sep 2
First Quarter
Sep 8
Full
Sep 15
Last Quarter
Sep 24
New

Hourly Weather History & Observations

Time (CDT) Temp. Heat Index Dew Point Humidity Pressure Visibility Wind Dir Wind Speed Gust Speed Precip Events Conditions
12:15 AM 70.3 °F - 67.6 °F 91% 29.95 in 5.0 mi SSE 8.1 mph - N/A   Overcast
12:35 AM 70.3 °F - 68.0 °F 92% 29.95 in 7.0 mi SSE 6.9 mph - N/A   Overcast
12:55 AM 70.3 °F - 68.0 °F 92% 29.94 in 7.0 mi SSE 8.1 mph - N/A   Overcast
1:15 AM 70.3 °F - 68.0 °F 92% 29.94 in 5.0 mi SSE 8.1 mph - N/A   Overcast
1:35 AM 70.3 °F - 68.0 °F 92% 29.92 in 5.0 mi SSE 8.1 mph - N/A   Overcast
1:55 AM 70.3 °F - 68.0 °F 92% 29.95 in 5.0 mi West 9.2 mph - N/A   Overcast
2:15 AM 70.3 °F - 67.6 °F 91% 29.95 in 10.0 mi WSW 8.1 mph - N/A   Overcast
2:35 AM 71.6 °F - 66.4 °F 84% 29.94 in 10.0 mi SW 4.6 mph - N/A   Overcast
2:55 AM 71.6 °F - 66.6 °F 84% 29.93 in 10.0 mi SW 3.5 mph - N/A   Overcast
3:15 AM 71.1 °F - 66.4 °F 85% 29.93 in 10.0 mi SSW 5.8 mph - N/A   Overcast
3:35 AM 70.3 °F - 67.5 °F 91% 29.92 in 7.0 mi South 5.8 mph - 0.13 in Rain Light Rain
3:55 AM 70.3 °F - 68.0 °F 92% 29.90 in 7.0 mi SSE 8.1 mph - 0.14 in   Scattered Clouds
4:15 AM 70.3 °F - 68.2 °F 93% 29.89 in 7.0 mi SSE 8.1 mph - N/A   Clear
4:35 AM 70.3 °F - 68.2 °F 93% 29.88 in 7.0 mi SE 8.1 mph - N/A   Clear
4:55 AM 70.3 °F - 68.2 °F 93% 29.88 in 7.0 mi SSE 10.4 mph - N/A   Clear
5:15 AM 70.3 °F - 68.2 °F 93% 29.87 in 7.0 mi SSE 9.2 mph - N/A   Clear
5:35 AM 70.3 °F - 68.2 °F 93% 29.88 in 7.0 mi South 5.8 mph - N/A   Clear
5:55 AM 70.3 °F - 68.0 °F 92% 29.88 in 7.0 mi South 8.1 mph - N/A   Clear
6:15 AM 70.3 °F - 68.0 °F 92% 29.88 in 7.0 mi SSE 10.4 mph - N/A   Clear
6:35 AM 70.3 °F - 68.0 °F 92% 29.88 in 7.0 mi South 9.2 mph - N/A   Clear
6:55 AM 70.3 °F - 68.0 °F 92% 29.88 in 5.0 mi South 9.2 mph - N/A   Clear
7:15 AM 70.3 °F - 67.5 °F 91% 29.89 in 5.0 mi South 10.4 mph 16.1 mph N/A   Clear
7:35 AM 70.3 °F - 67.5 °F 91% 29.89 in 5.0 mi SSE 10.4 mph - N/A   Clear
7:55 AM 70.3 °F - 67.1 °F 89% 29.89 in 5.0 mi SSE 8.1 mph - N/A   Clear
8:15 AM 71.6 °F - 68.0 °F 88% 29.89 in 5.0 mi SSE 12.7 mph - N/A   Clear
8:35 AM 72.9 °F - 68.9 °F 87% 29.89 in 5.0 mi SSE 11.5 mph - N/A   Clear
8:55 AM 74.7 °F - 70.3 °F 86% 29.88 in 7.0 mi South 9.2 mph 16.1 mph N/A   Scattered Clouds
9:15 AM 75.4 °F - 70.7 °F 85% 29.88 in 7.0 mi South 10.4 mph - N/A   Mostly Cloudy
9:35 AM 75.4 °F - 69.8 °F 83% 29.87 in 7.0 mi South 11.5 mph 16.1 mph N/A   Mostly Cloudy
9:55 AM 75.4 °F - 68.9 °F 80% 29.88 in 7.0 mi SSW 11.5 mph 17.3 mph N/A   Scattered Clouds
10:15 AM 77.9 °F - 70.7 °F 78% 29.88 in 7.0 mi South 9.2 mph - N/A   Scattered Clouds
10:35 AM 77.9 °F - 69.6 °F 76% 29.87 in 10.0 mi South 11.5 mph - N/A   Clear
10:55 AM 80.6 °F 84.4 °F 71.4 °F 73% 29.87 in 10.0 mi South 10.4 mph - N/A   Clear
11:15 AM 80.6 °F 84.1 °F 70.3 °F 71% 29.86 in 10.0 mi South 8.1 mph 16.1 mph N/A   Clear
11:35 AM 81.7 °F 85.4 °F 70.3 °F 68% 29.86 in 10.0 mi South 10.4 mph - N/A   Clear
11:55 AM 82.9 °F 87.0 °F 70.0 °F 65% 29.85 in 10.0 mi South 9.2 mph - N/A   Clear
12:15 PM 83.7 °F 87.5 °F 69.3 °F 62% 29.85 in 10.0 mi South 10.4 mph - N/A   Clear
12:35 PM 84.6 °F 88.8 °F 69.6 °F 61% 29.84 in 10.0 mi South 10.4 mph 17.3 mph N/A   Clear
12:55 PM 85.3 °F 89.8 °F 69.8 °F 60% 29.83 in 10.0 mi South 9.2 mph 16.1 mph N/A   Clear
1:15 PM 86.4 °F 90.7 °F 69.6 °F 57% 29.83 in 10.0 mi SSW 12.7 mph 17.3 mph N/A   Clear
1:35 PM 86.0 °F 90.1 °F 69.3 °F 57% 29.83 in 10.0 mi South 13.8 mph 18.4 mph N/A   Clear
1:55 PM 88.2 °F 93.3 °F 70.3 °F 55% 29.82 in 10.0 mi South 11.5 mph 20.7 mph N/A   Clear
2:15 PM 88.2 °F 93.3 °F 70.3 °F 55% 29.81 in 10.0 mi South 12.7 mph 17.3 mph N/A   Clear
2:35 PM 90.7 °F 98.5 °F 72.5 °F 55% 29.80 in 10.0 mi SSW 10.4 mph 16.1 mph N/A   Clear
2:55 PM 88.3 °F 92.4 °F 68.9 °F 52% 29.79 in 10.0 mi SSW 10.4 mph - N/A   Clear
3:15 PM 88.7 °F 93.5 °F 69.6 °F 53% 29.79 in 10.0 mi South 11.5 mph 18.4 mph N/A   Clear
3:35 PM 88.2 °F 92.5 °F 69.1 °F 53% 29.78 in 10.0 mi South 13.8 mph 17.3 mph N/A   Scattered Clouds
3:55 PM 90.5 °F 97.0 °F 71.2 °F 53% 29.78 in 10.0 mi South 9.2 mph - N/A   Scattered Clouds
4:15 PM 83.5 °F 86.4 °F 67.6 °F 59% 29.79 in 10.0 mi South 10.4 mph 18.4 mph N/A   Clear
4:35 PM 82.9 °F 85.8 °F 68.0 °F 60% 29.78 in 10.0 mi South 9.2 mph - N/A   Clear
4:55 PM 81.7 °F 84.9 °F 69.1 °F 65% 29.78 in 10.0 mi South 5.8 mph - N/A   Clear
5:15 PM 80.8 °F 83.8 °F 68.7 °F 67% 29.78 in 10.0 mi South 9.2 mph - N/A   Clear
5:35 PM 79.9 °F - 68.0 °F 67% 29.80 in 10.0 mi SW 20.7 mph 31.1 mph N/A   Scattered Clouds
5:55 PM 72.9 °F - 64.2 °F 74% 29.81 in 10.0 mi WSW 13.8 mph 21.9 mph N/A Rain Light Rain
6:15 PM 70.3 °F - 65.1 °F 83% 29.79 in 7.0 mi WSW 10.4 mph - N/A Rain Light Rain
6:35 PM 70.3 °F - 66.2 °F 87% 29.80 in 10.0 mi SSE 5.8 mph - N/A Rain Light Rain
6:55 PM 70.3 °F - 66.4 °F 87% 29.79 in 10.0 mi ESE 5.8 mph - N/A   Clear
7:15 PM 70.3 °F - 67.1 °F 89% 29.78 in 10.0 mi SE 4.6 mph - N/A   Clear
7:35 PM 70.3 °F - 67.5 °F 91% 29.78 in 10.0 mi SSE 3.5 mph - N/A   Clear
7:55 PM 70.3 °F - 67.5 °F 91% 29.78 in 10.0 mi Calm Calm - N/A   Clear
8:15 PM 70.3 °F - 67.5 °F 91% 29.77 in 10.0 mi Calm Calm - N/A   Clear
8:35 PM 70.3 °F - 67.5 °F 91% 29.79 in 7.0 mi South 3.5 mph - 0.01 in Rain Rain
8:55 PM 70.3 °F - 67.6 °F 91% 29.80 in 7.0 mi SSW 4.6 mph - 0.02 in Rain Rain
9:15 PM 70.3 °F - 68.0 °F 92% 29.79 in 4.0 mi South 4.6 mph - 0.05 in Rain Heavy Rain
9:35 PM 70.3 °F - 68.2 °F 93% 29.80 in 7.0 mi SSW 5.8 mph - 0.08 in Rain Light Rain
9:55 PM 70.3 °F - 68.2 °F 93% 29.79 in 5.0 mi Calm Calm - 0.13 in Rain Rain
10:15 PM 70.3 °F - 68.4 °F 93% 29.80 in 10.0 mi SSW 5.8 mph - 0.01 in   Mostly Cloudy
10:35 PM 70.3 °F - 68.2 °F 93% 29.80 in 7.0 mi SSW 5.8 mph - 0.01 in   Overcast
10:55 PM 70.3 °F - 68.2 °F 93% 29.80 in 7.0 mi SW 3.5 mph - 0.01 in   Overcast
11:15 PM 70.3 °F - 68.2 °F 93% 29.80 in 7.0 mi SSW 4.6 mph - N/A   Overcast
11:35 PM 70.3 °F - 68.2 °F 93% 29.80 in 5.0 mi South 4.6 mph - N/A   Overcast
11:55 PM 70.3 °F - 68.2 °F 93% 29.80 in 7.0 mi SSW 4.6 mph - N/A   Overcast